Regional Weather Roundup
Issued by NWS

Home | Current Version | Previous Version | Text Only | Print | Product List | Glossary On
Versions: 1 2 3 4 5 6 7 8 9 10 11 12 13 14 15 16 17 18 19 20 21 22 23 24 25 26 27 28 29 30 31 32 33 34 35 36 37 38 39 40 41 42 43 44 45 46 47 48 49 50
000
ASUS43 KFSD 180502
RWRSD

WEATHER ROUNDUP FOR SOUTH DAKOTA
NATIONAL WEATHER SERVICE SIOUX FALLS SD
1200 AM CDT SAT APR 18 2015

NOTE: "FAIR" INDICATES FEW OR NO CLOUDS BELOW 12,000 FEET WITH NO
SIGNIFICANT WEATHER AND/OR OBSTRUCTIONS TO VISIBILITY.


SDZ001>005-009-010-012>017-180600-
NORTHWEST AND NORTH CENTRAL SOUTH DAKOTA

CITY           SKY/WX    TMP DP  RH WIND       PRES   REMARKS
BUFFALO          N/A     51  28  41 S3        30.02F
FAITH            N/A     50  33  52 SW13      30.08F
MOBRIDGE       CLOUDY    47  27  45 CALM      30.04F
$$

SDZ012>016-024>037-041>051-057-063-072>074-180600-
SOUTHWEST AND SOUTH CENTRAL SOUTH DAKOTA

CITY           SKY/WX    TMP DP  RH WIND       PRES   REMARKS
RAPID CTY ARPT LGT RAIN  47  45  93 W3        30.11F
PIERRE         CLOUDY    57  46  66 W10       30.06S
CUSTER         CLOUDY    41  38  89 NE7       30.11F
ELLSWORTH AFB  LGT RAIN  48  47  94 SW6       30.10F
PHILIP         LGT RAIN  51  48  89 NE5       30.09F
PINE RIDGE     CLOUDY    49  46  90 E14       30.07F
WINNER         CLOUDY    55  50  83 W6        30.05F
$$

SDZ004>011-016>023-039-040-180600-
NORTHEAST SOUTH DAKOTA

CITY           SKY/WX    TMP DP  RH WIND       PRES   REMARKS
ABERDEEN       PTCLDY    47  18  31 CALM      30.06S
WATERTOWN      PTCLDY    46  24  42 CALM      30.07S
BROOKINGS      PTCLDY    52  25  35 NE3       30.07S
SISSETON         N/A     44  24  45 N8        30.06R
$$

SDZ017-020-022-023-036>040-048>070-180600-
SOUTHEAST SOUTH DAKOTA

CITY           SKY/WX    TMP DP  RH WIND       PRES   REMARKS
SIOUX FALLS    CLOUDY    55  35  47 NE5       30.05S
HURON          PTCLDY    49  26  41 NE6       30.04F
MITCHELL       CLOUDY    58  34  40 E6        30.05S
YANKTON        CLOUDY    61  46  59 N8        30.02S
$$

ABBREVIATIONS USED IN REMARKS
   TC - TEMPERATURE IN CELSIUS
  WCI - WIND CHILL INDEX
   HX - HEAT INDEX
  VSB - VISIBILITY



USA.gov is the U.S. government's official web portal to all federal, state and local government web resources and services.